DW7589 Weather Reports


time (UTC)temp
F
wind
direction
speed
knots
gust
knots
rain 1hr
in
rain 24hr
in
rain mn
in
humidity
%
barometer
mb
20260901060244 85 177 1.7 4.3 0.00 0.00 0.00 59 1015.1
20260901055744 85 175 1.7 4.3 0.00 0.00 0.00 58 1014.9
20260901055244 85 173 1.7 4.3 0.00 0.00 0.00 58 1014.8
20260901054744 85 170 1.7 5.2 0.00 0.00 0.00 58 1014.9
20260901054244 85 163 1.7 5.2 0.00 0.00 0.00 58 1014.9
20260901053244 85 160 1.7 4.3 0.00 0.00 0.00 58 1014.9
20260901052745 85 158 1.7 4.3 0.00 0.00 0.00 58 1014.9
20260901052244 85 157 1.7 3.5 0.00 0.00 0.00 58 1015.0
20260901050744 85 157 1.7 4.3 0.00 0.00 0.00 57 1014.7
20260901050244 85 157 1.7 2.6 0.00 0.00 0.00 57 1014.7
20260901045745 85 158 0.9 2.6 0.00 0.00 0.00 56 1014.6
20260901045244 85 162 0.9 2.6 0.00 0.00 0.00 55 1014.6
20260901044243 84 0 0.0 2.6 0.00 0.00 0.00 52 1014.5
20260901043744 84 0 0.0 0.9 0.00 0.00 0.00 51 1014.5
20260901042745 85 170 0.9 2.6 0.00 0.00 0.00 50 1014.5
20260901041744 85 0 0.0 0.9 0.00 0.00 0.00 50 1014.3
20260901041244 85 0 0.0 0.9 0.00 0.00 0.00 50 1014.2
20260901040744 85 0 0.0 0.9 0.00 0.00 0.00 51 1014.2
20260901040244 86 0 0.0 0.9 0.00 0.00 0.00 54 1014.2
20260901034744 87 0 0.0 0.9 0.00 0.00 0.00 53 1014.2
20260901034244 87 0 0.0 0.9 0.00 0.00 0.00 52 1014.2
20260901033244 87 0 0.0 0.9 0.00 0.00 0.00 53 1014.0
20260901032744 87 0 0.0 0.9 0.00 0.00 0.00 54 1014.0
20260901032244 87 0 0.0 0.9 0.00 0.00 0.00 53 1014.0
20260901031744 87 0 0.0 0.9 0.00 0.00 0.00 53 1014.0
20260901031244 87 0 0.0 0.9 0.00 0.00 0.00 52 1013.9
20260901030744 87 0 0.0 0.9 0.00 0.00 0.00 51 1013.9
20260901030244 88 0 0.0 0.9 0.00 0.00 0.00 51 1013.9
20260901025743 88 0 0.0 0.9 0.00 0.00 0.00 50 1013.8
20260901025244 88 0 0.0 0.9 0.00 0.00 0.00 49 1013.8
20260901024744 87 0 0.0 0.9 0.00 0.00 0.00 49 1013.7
20260901024244 88 0 0.0 0.9 0.00 0.00 0.00 48 1013.7
20260901023744 88 158 0.9 0.9 0.00 0.00 0.00 47 1013.7
20260901022744 88 158 0.9 0.9 0.00 0.00 0.00 47 1013.6
20260901022244 88 0 0.0 0.9 0.00 0.00 0.00 47 1013.5
20260901021744 88 0 0.0 0.9 0.00 0.00 0.00 47 1013.5
20260901021244 89 0 0.0 0.9 0.00 0.00 0.00 47 1013.4
20260901020744 89 0 0.0 0.9 0.00 0.00 0.00 46 1013.3
20260901020244 89 0 0.0 0.9 0.00 0.00 0.00 46 1013.3
20260901015745 90 0 0.0 0.9 0.00 0.00 0.00 45 1013.2
20260901015244 90 0 0.0 0.9 0.00 0.00 0.00 45 1013.2
20260901014744 90 0 0.0 0.9 0.00 0.00 0.00 44 1013.1
20260901014244 91 158 0.9 1.7 0.00 0.00 0.00 43 1013.1
20260901013744 91 158 0.9 1.7 0.00 0.00 0.00 42 1013.1
20260901013245 91 0 0.0 1.7 0.00 0.00 0.00 42 1013.0
20260901012744 92 158 0.9 1.7 0.00 0.00 0.00 41 1013.0
20260901012246 92 159 0.9 1.7 0.00 0.00 0.00 41 1012.9
20260901010245 93 160 0.9 1.7 0.00 0.00 0.00 39 1012.8
20260901005745 93 152 0.9 1.7 0.00 0.00 0.00 39 1012.9
20260901005245 94 149 0.9 2.6 0.00 0.00 0.00 38 1012.8
20260901004744 94 151 0.9 2.6 0.00 0.00 0.00 38 1012.9
20260901004244 95 149 1.7 2.6 0.00 0.00 0.00 38 1012.9
20260901003744 95 148 1.7 4.3 0.00 0.00 0.00 37 1012.8
20260901002744 96 149 1.7 3.5 0.00 0.00 0.00 36 1012.9
20260901002244 96 149 1.7 3.5 0.00 0.00 0.00 36 1012.9
20260901001745 96 148 1.7 3.5 0.00 0.00 0.00 36 1012.9
20260901001244 97 148 1.7 3.5 0.00 0.00 0.00 35 1012.8
20260901000746 97 149 1.7 4.3 0.00 0.00 0.00 35 1012.8
20260901000244 97 148 2.6 5.2 0.00 0.00 0.00 35 1012.8
20260831235745 97 146 2.6 5.2 0.00 0.00 0.00 35 1012.8
20260831235245 98 146 2.6 4.3 0.00 0.00 0.00 34 1012.8
20260831234744 98 150 2.6 4.3 0.00 0.00 0.00 33 1012.7
20260831234245 98 152 2.6 5.2 0.00 0.00 0.00 33 1012.7
20260831233745 98 151 2.6 5.2 0.00 0.00 0.00 33 1012.8
20260831233244 98 148 2.6 5.2 0.00 0.00 0.00 33 1012.8
20260831232746 99 144 2.6 5.2 0.00 0.00 0.00 33 1012.8
20260831232245 99 143 2.6 4.3 0.00 0.00 0.00 32 1012.8
20260831231744 99 143 2.6 5.2 0.00 0.00 0.00 32 1012.7
20260831231246 99 144 2.6 5.2 0.00 0.00 0.00 33 1012.8
20260831230746 99 146 2.6 6.1 0.00 0.00 0.00 33 1012.9
20260831230244 99 141 2.6 7.0 0.00 0.00 0.00 33 1013.0
20260831225745 99 142 2.6 7.0 0.00 0.00 0.00 32 1013.0
20260831225244 99 143 2.6 5.2 0.00 0.00 0.00 32 1013.0
20260831224745 99 146 2.6 6.1 0.00 0.00 0.00 32 1013.0
20260831224245 100 160 2.6 6.1 0.00 0.00 0.00 31 1012.9
20260831223245 100 151 2.6 5.2 0.00 0.00 0.00 30 1013.0
20260831222744 100 150 1.7 5.2 0.00 0.00 0.00 29 1013.1
20260831222246 100 151 1.7 4.3 0.00 0.00 0.00 29 1013.1
20260831221744 100 160 1.7 4.3 0.00 0.00 0.00 29 1013.1
20260831221245 100 158 1.7 6.1 0.00 0.00 0.00 29 1013.1
20260831220744 100 157 2.6 6.1 0.00 0.00 0.00 29 1013.1
20260831220245 100 164 2.6 4.3 0.00 0.00 0.00 29 1013.1
20260831215244 101 144 1.7 5.2 0.00 0.00 0.00 29 1013.3
20260831214745 101 146 1.7 4.3 0.00 0.00 0.00 28 1013.3
20260831214244 100 148 2.6 7.0 0.00 0.00 0.00 26 1013.3
20260831213745 100 144 2.6 7.0 0.00 0.00 0.00 28 1013.4
20260831212745 100 162 1.7 6.1 0.00 0.00 0.00 30 1013.5
20260831212245 100 173 1.7 3.5 0.00 0.00 0.00 32 1013.6
20260831211745 99 171 1.7 4.3 0.00 0.00 0.00 31 1013.6
20260831211246 99 161 2.6 5.2 0.00 0.00 0.00 32 1013.7
20260831210744 98 150 3.5 8.7 0.00 0.00 0.00 33 1013.9
20260831205744 100 162 2.6 7.0 0.00 0.00 0.00 33 1014.0
20260831205244 99 150 3.5 7.8 0.00 0.00 0.00 33 1014.1
20260831204744 99 144 3.5 7.8 0.00 0.00 0.00 33 1014.1
20260831204245 99 143 3.5 7.8 0.00 0.00 0.00 31 1014.3
20260831203746 99 142 3.5 7.0 0.00 0.00 0.00 34 1014.3
20260831203245 99 148 3.5 7.0 0.00 0.00 0.00 34 1014.4
20260831202744 98 156 2.6 7.0 0.00 0.00 0.00 35 1014.6
20260831202245 99 140 2.6 7.8 0.00 0.00 0.00 34 1014.6
20260831201245 99 142 3.5 7.8 0.00 0.00 0.00 36 1014.9
20260831200245 100 148 3.5 8.7 0.00 0.00 0.00 35 1015.0
20260831195745 99 152 3.5 7.0 0.00 0.00 0.00 36 1014.9
20260831194244 98 149 3.5 7.0 0.00 0.00 0.00 37 1015.1
20260831193246 98 149 3.5 6.1 0.00 0.00 0.00 37 1015.2
20260831192244 98 159 3.5 7.0 0.00 0.00 0.00 37 1015.4
20260831191245 98 141 3.5 8.7 0.00 0.00 0.00 37 1015.4
20260831190744 98 147 3.5 8.7 0.00 0.00 0.00 37 1015.6
20260831190245 98 153 2.6 5.2 0.00 0.00 0.00 38 1015.6
20260831185245 98 144 2.6 7.0 0.00 0.00 0.00 37 1015.7
20260831184745 98 143 3.5 7.8 0.00 0.00 0.00 39 1015.7
20260831184244 97 142 3.5 7.8 0.00 0.00 0.00 37 1015.8
20260831183745 97 141 2.6 7.0 0.00 0.00 0.00 38 1015.9
20260831183244 97 144 2.6 7.8 0.00 0.00 0.00 39 1015.9
20260831182745 98 149 2.6 7.8 0.00 0.00 0.00 38 1015.9
20260831182244 98 148 2.6 5.2 0.00 0.00 0.00 40 1016.0
20260831181744 97 152 2.6 6.1 0.00 0.00 0.00 40 1016.0
20260831181245 96 161 2.6 7.8 0.00 0.00 0.00 39 1016.1
20260831180744 96 157 3.5 7.8 0.00 0.00 0.00 40 1016.2
20260831175745 96 153 2.6 7.0 0.00 0.00 0.00 42 1016.3
20260831175246 96 165 2.6 7.8 0.00 0.00 0.00 40 1016.4
20260831174745 96 153 3.5 7.8 0.00 0.00 0.00 39 1016.5
20260831174244 96 145 2.6 7.8 0.00 0.00 0.00 40 1016.6
20260831173745 96 148 1.7 7.8 0.00 0.00 0.00 43 1016.7
20260831173245 96 159 1.7 4.3 0.00 0.00 0.00 44 1016.8
20260831172746 95 176 1.7 5.2 0.00 0.00 0.00 44 1016.9
20260831172245 95 166 2.6 6.1 0.00 0.00 0.00 45 1016.9
20260831171745 95 151 2.6 7.0 0.00 0.00 0.00 46 1016.9
20260831171245 95 142 2.6 7.0 0.00 0.00 0.00 46 1017.0
20260831170744 94 152 2.6 5.2 0.00 0.00 0.00 47 1017.1
20260831170245 94 161 2.6 7.0 0.00 0.00 0.00 47 1017.1
20260831165744 94 150 2.6 7.0 0.00 0.00 0.00 47 1017.1
20260831164746 93 147 2.6 7.0 0.00 0.00 0.00 48 1017.2
20260831164245 93 164 1.7 7.0 0.00 0.00 0.00 48 1017.1
20260831163745 92 175 1.7 5.2 0.00 0.00 0.00 49 1017.2
20260831163244 92 173 1.7 4.3 0.00 0.00 0.00 49 1017.3
20260831162745 93 184 1.7 5.2 0.00 0.00 0.00 49 1017.3
20260831162246 92 185 1.7 5.2 0.00 0.00 0.00 50 1017.3
20260831161245 92 155 1.7 5.2 0.00 0.00 0.00 48 1017.2
20260831160244 92 164 1.7 4.3 0.00 0.00 0.00 50 1017.3
20260831155745 91 169 1.7 5.2 0.00 0.00 0.00 52 1017.2
20260831154746 91 209 1.7 3.5 0.00 0.00 0.00 53 1017.1
20260831153744 90 201 1.7 6.1 0.00 0.00 0.00 56 1017.1
20260831152744 89 210 1.7 5.2 0.00 0.00 0.00 59 1017.1
20260831152245 89 191 1.7 4.3 0.00 0.00 0.00 60 1017.0
20260831151744 88 176 1.7 4.3 0.00 0.00 0.00 62 1017.0
20260831150244 87 247 2.6 6.1 0.00 0.00 0.00 66 1017.1
20260831145745 86 235 1.7 5.2 0.00 0.00 0.00 68 1017.1
20260831145245 86 211 1.7 3.5 0.00 0.00 0.00 69 1017.0
20260831144746 86 216 1.7 7.0 0.00 0.00 0.00 70 1017.1
20260831144245 85 224 2.6 7.0 0.00 0.00 0.00 70 1017.0
20260831143745 84 236 2.6 5.2 0.00 0.00 0.00 72 1017.0
20260831143245 84 232 1.7 5.2 0.00 0.00 0.00 73 1017.0
20260831142246 83 208 1.7 6.1 0.00 0.00 0.00 75 1016.9
20260831141745 83 212 1.7 6.1 0.00 0.00 0.00 76 1017.0
20260831141245 82 213 1.7 6.1 0.00 0.00 0.00 77 1016.9
20260831140746 82 220 2.6 6.1 0.00 0.00 0.00 79 1016.9
20260831140245 81 200 1.7 6.1 0.00 0.00 0.00 79 1016.9
20260831135745 81 199 0.9 4.3 0.00 0.00 0.00 80 1016.8
20260831134745 80 199 0.9 2.6 0.00 0.00 0.00 83 1016.8
20260831132745 78 0 0.0 1.7 0.00 0.00 0.00 86 1016.7
20260831132245 77 0 0.0 1.7 0.00 0.00 0.00 86 1016.7
20260831131745 77 0 0.0 1.7 0.00 0.00 0.00 86 1016.6
20260831131246 77 0 0.0 0.9 0.00 0.00 0.00 87 1016.5
20260831130745 77 177 0.9 1.7 0.00 0.00 0.00 87 1016.3
20260831130246 76 172 0.9 1.7 0.00 0.00 0.00 87 1016.3
20260831125746 76 0 0.0 1.7 0.00 0.00 0.00 87 1016.2
20260831125246 76 0 0.0 0.9 0.00 0.00 0.00 87 1016.2
20260831124745 76 0 0.0 0.9 0.00 0.00 0.00 87 1016.1
20260831124245 76 0 0.0 1.7 0.00 0.00 0.00 87 1016.1
20260831123745 76 0 0.0 1.7 0.00 0.00 0.00 87 1016.2
20260831123245 76 0 0.0 0.9 0.00 0.00 0.00 87 1016.1
20260831122245 76 159 0.9 1.7 0.00 0.00 0.00 87 1016.0
20260831121745 76 153 0.9 1.7 0.00 0.00 0.00 87 1015.9
20260831121247 76 152 0.9 2.6 0.00 0.00 0.00 87 1015.9
20260831120747 76 155 0.9 2.6 0.00 0.00 0.00 87 1015.7
20260831115745 76 156 0.9 1.7 0.00 0.00 0.00 86 1015.6
20260831115245 76 155 0.9 1.7 0.00 0.00 0.00 86 1015.4
20260831114745 76 154 0.9 1.7 0.00 0.00 0.00 85 1015.4
20260831114246 76 160 0.9 2.6 0.00 0.00 0.00 84 1015.5
20260831113747 76 0 0.0 2.6 0.00 0.00 0.00 84 1015.4
20260831113245 76 0 0.0 0.9 0.00 0.00 0.00 84 1015.3
20260831112246 76 0 0.0 0.9 0.00 0.00 0.00 84 1015.3
20260831111745 76 0 0.0 0.9 0.00 0.00 0.00 84 1015.2
20260831111247 77 0 0.0 0.9 0.00 0.00 0.00 83 1015.2
20260831110746 77 0 0.0 0.9 0.00 0.00 0.00 83 1015.2
20260831110245 77 0 0.0 0.9 0.00 0.00 0.00 83 1015.1
20260831105745 77 0 0.0 0.9 0.00 0.00 0.00 82 1015.1
20260831104245 77 0 0.0 1.7 0.00 0.00 0.00 82 1015.1
20260831103746 77 170 0.9 1.7 0.00 0.00 0.00 81 1015.1
20260831103245 77 168 0.9 1.7 0.00 0.00 0.00 81 1015.1
20260831102745 77 171 0.9 1.7 0.00 0.00 0.00 81 1015.1
20260831102245 78 178 0.9 1.7 0.00 0.00 0.00 80 1015.1
20260831101747 78 179 0.9 1.7 0.00 0.00 0.00 80 1015.1
20260831100745 78 174 0.9 1.7 0.00 0.00 0.00 79 1015.1
20260831100245 78 168 0.9 2.6 0.00 0.00 0.00 78 1015.0
20260831095746 78 168 0.9 3.5 0.00 0.00 0.00 78 1015.0
20260831095244 78 170 0.9 3.5 0.00 0.00 0.00 78 1014.9
20260831094745 79 172 0.9 2.6 0.00 0.00 0.00 77 1014.9
20260831094245 79 168 0.9 2.6 0.00 0.00 0.00 77 1014.9
20260831093746 79 171 0.9 2.6 0.00 0.00 0.00 76 1014.9
20260831093245 79 182 0.9 1.7 0.00 0.00 0.00 76 1015.0
20260831092745 79 175 0.9 2.6 0.00 0.00 0.00 75 1015.0
20260831092245 79 168 0.9 2.6 0.00 0.00 0.00 75 1014.9
20260831090746 79 172 0.9 1.7 0.00 0.00 0.00 74 1014.8
20260831090245 80 170 0.9 2.6 0.00 0.00 0.00 73 1014.7
20260831085746 80 167 0.9 2.6 0.00 0.00 0.00 73 1014.7
20260831084745 80 167 0.9 2.6 0.00 0.00 0.00 73 1014.7
20260831084245 80 167 0.9 2.6 0.00 0.00 0.00 72 1014.7
20260831083245 80 171 0.9 2.6 0.00 0.00 0.00 72 1014.7
20260831082745 81 175 0.9 1.7 0.00 0.00 0.00 71 1014.6
20260831081747 81 166 0.9 1.7 0.00 0.00 0.00 71 1014.6
20260831081245 81 159 0.9 2.6 0.00 0.00 0.00 70 1014.7
20260831080746 81 157 0.9 2.6 0.00 0.00 0.00 70 1014.7
20260831075745 82 162 0.9 3.5 0.00 0.00 0.00 69 1014.7
20260831075246 82 158 0.9 2.6 0.00 0.00 0.00 69 1014.7
20260831074745 82 159 0.9 4.3 0.00 0.00 0.00 68 1014.8
20260831073746 82 162 1.7 3.5 0.00 0.00 0.00 68 1014.9
20260831073245 82 160 1.7 4.3 0.00 0.00 0.00 67 1014.8
20260831072247 83 169 0.9 2.6 0.00 0.00 0.00 66 1014.9
20260831071745 83 174 0.9 2.6 0.00 0.00 0.00 66 1014.9
20260831071246 83 172 0.9 2.6 0.00 0.00 0.00 66 1014.9
20260831070745 83 171 0.9 2.6 0.00 0.00 0.00 65 1014.9
20260831070246 83 168 0.9 2.6 0.00 0.00 0.00 65 1014.9
20260831065746 83 169 0.9 3.5 0.00 0.00 0.00 65 1014.9
20260831065246 83 170 0.9 3.5 0.00 0.00 0.00 64 1014.8
20260831064746 83 173 0.9 2.6 0.00 0.00 0.00 64 1014.8
20260831064245 83 177 0.9 1.7 0.00 0.00 0.00 63 1014.7
20260831063745 83 175 0.9 2.6 0.00 0.00 0.00 63 1014.7
20260831062747 84 173 0.9 3.5 0.00 0.00 0.00 62 1014.7
20260831062246 84 177 0.9 2.6 0.00 0.00 0.00 61 1014.7
20260831061747 84 177 0.9 3.5 0.00 0.00 0.00 61 1014.7
20260831061245 84 176 0.9 4.3 0.00 0.00 0.00 60 1014.6
20260831060746 84 175 0.9 4.3 0.00 0.00 0.00 60 1014.6